STARLINK-36299, 68534

Orbit data source: Space-Track

STARLINK-36299, 68534 is a payload satellite owned by SpaceX/Seattle (US) in LEO that was launched on Mon, 30 Mar 2026 UTC via an FALCON 9 launch vehicle from the Air Force Eastern Test Range (AFETR). Payload-class satellites include a variety of spacecraft equipped with specific instruments for various scientific and technological missions. These include communications satellites like Starlink; space stations such as the ISS; scientific satellites like the Hubble; Earth observation satellites from companies like Planet Labs, Umbra, and HawkEye 360; GPS; miniature CubeSats for education and research; and military/defense satellites.

Loading next visibility...
Identifier
68534, 2026-068AC
Orbit
LEO
Country
Flag of USUS
Related business
Manufacturer
SpaceX/Seattle
Mission
Operational spacecraft
Bus & Motor
STARLINK V2MO, Unknown motor
Mass
575 kg wet, ~530 kg dry
Launch date (UTC)
2026-03-30 (3 months ago)
Launch vehicle
FALCON 9
Launch site
Air Force Eastern Test Range (AFETR)
Object type
Payload
Rocket body
Debris
Shape & HBR
Unknown shape, 2.4 m
Radar Cross Section
Large (>1 m²)

Expand to show TLE details & history
Last TLE update: 1 day ago

TLE from 1 day ago
0 STARLINK-36299
1 68534U 26068AC  26170.85970878  .00023102  00000-0  69246-3 0  9994
2 68534  53.1582  12.8527 0001020  98.8514 261.2605 15.34414246 12611
Epoch: 2026-06-19T20:37Z
TLE epoch observation values (Epoch: 2026-06-19T20:37:58.838Z)
Latitude
0.00005°
Longitude
155.27494°
Altitude
463.668 km
Speed
7.636 km/s
True Right ascension
00h 51m 24s
True Declination
0° 00' 00"
Sunlit
Object was in daylight at epoch
Visualization orbit readout
Latitude
Unknown
Longitude
Unknown
Altitude
Unknown
Speed
Unknown
Apparent Right ascension
Unknown
Apparent Declination
Unknown
Sunlit
N/A
Visualization observer readout
Local Sidereal Time
10:18:38
Azimuth
Unknown
Elevation
Unknown
Doppler factor
Unknown
Orbital elements
Apogee altitude
463.616 km
Perigee altitude
462.22 km
Semi-major axis
6,841.055 km
Eccentricity
0.0001
Inclination
53.1582°
RAAN
12.8527°
Arg. of periapsis
98.8514°
True anomaly
261.24895°
Mean anomaly
261.2605°
Eccentric anomaly
261.25472°
Mean motion
3.83582 °/min
Orbital period
93.85 mins
BSTAR
0.00069246
Loading maneuver chart data...
Computing Atmospheric mass density...
Loading historical data...
Loading historical data...
Loading historical data...
Loading historical data...
Loading historical data...
Loading historical data...
Loading historical data...

Documentation

Showing up to 5 results
|